STARLINK-30390, 57819

Orbit data source: Space-Track

STARLINK-30390, 57819 is a payload satellite owned by SpaceX/Seattle (US) in LEO that was launched on Sat, 09 Sep 2023 UTC via an FALCON 9 launch vehicle from the Air Force Eastern Test Range (AFETR). Payload-class satellites include a variety of spacecraft equipped with specific instruments for various scientific and technological missions. These include communications satellites like Starlink; space stations such as the ISS; scientific satellites like the Hubble; Earth observation satellites from companies like Planet Labs, Umbra, and HawkEye 360; GPS; miniature CubeSats for education and research; and military/defense satellites.

Loading next visibility...
Identifier
57819, 2023-138M
Orbit
LEO
Country
Flag of USUS
Related business
Manufacturer
SpaceX/Seattle
Mission
Operational Commercial Communications
Bus & Motor
STARLINK V2M, Unknown motor
Mass
730 kg wet, ~700 kg dry
Launch date (UTC)
2023-09-09 (3 years ago)
Launch vehicle
FALCON 9
Launch site
Air Force Eastern Test Range (AFETR)
Object type
Payload
Rocket body
Debris
Shape & HBR
Box + 2 Pan, 17.7 m
Radar Cross Section
33.884 m², Large (>1 m²)

Expand to show TLE details & history
Last TLE update: 2 days ago

TLE from 2 days ago
0 STARLINK-30390
1 57819U 23138M   26171.27942899  .00000502  00000-0  27763-4 0  9990
2 57819  43.0046  15.1900 0001411 264.4426  95.6265 15.27586005154361
Epoch: 2026-06-20T06:42Z
TLE epoch observation values (Epoch: 2026-06-20T06:42:22.664Z)
Latitude
-0.00002°
Longitude
6.09922°
Altitude
482.902 km
Speed
7.626 km/s
True Right ascension
01h 00m 45s
True Declination
0° 00' 00"
Sunlit
Object was in daylight at epoch
Visualization orbit readout
Latitude
Unknown
Longitude
Unknown
Altitude
Unknown
Speed
Unknown
Apparent Right ascension
Unknown
Apparent Declination
Unknown
Sunlit
N/A
Visualization observer readout
Local Sidereal Time
21:33:46
Azimuth
Unknown
Elevation
Unknown
Doppler factor
Unknown
Orbital elements
Apogee altitude
485.944 km
Perigee altitude
484.007 km
Semi-major axis
6,863.113 km
Eccentricity
0.00014
Inclination
43.0046°
RAAN
15.19°
Arg. of periapsis
264.4426°
True anomaly
95.64259°
Mean anomaly
95.6265°
Eccentric anomaly
95.63455°
Mean motion
3.81735 °/min
Orbital period
94.31 mins
BSTAR
0.000027763
Loading maneuver chart data...
Computing Atmospheric mass density...
Loading historical data...
Loading historical data...
Loading historical data...
Loading historical data...
Loading historical data...
Loading historical data...
Loading historical data...

Documentation

Showing up to 5 results
|